Terminal Aerodrome Forecast
Issued by NWS

Home | Current Version | Previous Version | Text Only | Print | Product List | Glossary On
Versions: 1 2 3 4 5 6 7 8 9 10 11 12 13 14 15
000
FTUS46 KSEW 191120
TAFOLM
TAF
KOLM 191120Z 1912/2012 24004KT P6SM OVC150
     FM191900 20017G25KT P6SM VCSH SCT030 OVC050
     FM192200 20014G23KT 3SM -RA BR SCT007 BKN014 OVC025
     FM200200 20014G22KT 2SM RA BR OVC007
     FM200700 20007KT 4SM -RA BR BKN008 OVC015=

USA.gov is the U.S. government's official web portal to all federal, state and local government web resources and services.